Location: York
(31.8935°S, 116.7682°E)
Time: 00:48:38
(UTC+08:00)

Envisat - Pass Details

Date: 09 December 2021
Orbit: 764 x 766 km, 98.2° (Epoch: 28 January)

Event Time Altitude Azimuth Distance (km) Brightness Sun altitude
Rises 04:06:20 0° 25° (NNE) 3,218 6.1 -10.5°
Reaches altitude 10° 04:08:39 10° 29° (NNE) 2,299 5.4 -10.1°
Maximum altitude 04:13:36 55° 106° (ESE) 921 3.9 -9.3°
Drops below altitude 10° 04:18:36 10° 182° (S) 2,327 6.0 -8.4°
Sets 04:20:58 0° 186° (S) 3,261 6.7 -8.0°
